CW2654 Weather Reports


Display with metric or nautical units.
time (UTC)temp
F
wind
direction
speed
MPH
gust
MPH
rain 1hr
in
rain 24hr
in
rain mn
in
humidity
%
barometer
mb
20260902074606 58 0 1.0 6.0 0.00 0.00 0.00 86 1011.6
20260902073100 58 93 0.0 4.0 0.00 0.00 0.00 86 1011.7
20260902071606 58 118 1.0 6.0 0.00 0.00 0.00 86 1011.9
20260902070114 58 111 1.0 7.0 0.00 0.00 0.00 86 1012.0
20260902064610 58 0 1.0 4.0 0.00 0.00 0.00 85 1012.3
20260902063101 58 109 1.0 6.0 0.00 0.00 0.00 85 1012.3
20260902060111 59 0 0.0 0.0 0.00 0.00 0.00 84 1012.4
20260902054559 59 115 0.0 3.0 0.00 0.00 0.00 83 1012.5
20260902053116 59 108 0.0 9.0 0.00 0.00 0.00 83 1012.5
20260902051601 59 115 0.0 3.0 0.00 0.00 0.00 83 1012.5
20260902050121 59 0 0.0 6.0 0.00 0.00 0.00 83 1012.3
20260902044602 59 169 0.0 4.0 0.00 0.00 0.00 83 1012.2
20260902043105 60 82 0.0 4.0 0.00 0.00 0.00 84 1012.3
20260902041613 60 0 0.0 3.0 0.00 0.00 0.00 82 1012.2
20260902040105 60 0 0.0 3.0 0.00 0.00 0.00 82 1012.2
20260902034604 60 142 1.0 9.0 0.00 0.00 0.00 80 1012.2
20260902033101 61 0 2.0 8.0 0.00 0.00 0.00 80 1011.9
20260902031603 61 0 0.0 3.0 0.00 0.00 0.00 81 1011.9
20260902030106 61 0 0.0 3.0 0.00 0.00 0.00 78 1011.9
20260902024559 61 0 0.0 4.0 0.00 0.00 0.00 78 1011.9
20260902023057 62 168 0.0 4.0 0.00 0.00 0.00 77 1011.7
20260902021554 62 0 0.0 4.0 0.00 0.00 0.00 77 1011.8
20260902020106 62 0 0.0 7.0 0.00 0.00 0.00 76 1011.8
20260902014557 62 0 0.0 5.0 0.00 0.00 0.00 77 1011.7
20260902013059 63 250 0.0 1.0 0.00 0.00 0.00 77 1011.7
20260902011600 63 0 0.0 1.0 0.00 0.00 0.00 78 1011.6
20260902010106 63 0 0.0 6.0 0.00 0.00 0.00 78 1011.6
20260902004601 64 0 0.0 1.0 0.00 0.00 0.00 79 1011.3
20260902003101 64 0 0.0 0.0 0.00 0.00 0.00 77 1011.3
20260902001627 64 0 0.0 0.0 0.00 0.00 0.00 79 1011.3
20260902000100 64 0 0.0 1.0 0.00 0.00 0.00 80 1011.2
20260901234600 64 0 0.0 1.0 0.00 0.00 0.00 77 1011.5
20260901233106 64 0 0.0 3.0 0.00 0.00 0.00 79 1011.6
20260901231605 64 0 0.0 3.0 0.00 0.00 0.00 77 1011.6
20260901230100 64 0 0.0 2.0 0.00 0.00 0.00 78 1011.6
20260901223102 63 0 0.0 2.0 0.00 0.00 0.00 79 1011.7
20260901221604 63 0 0.0 1.0 0.00 0.00 0.00 81 1011.9
20260901214602 63 0 0.0 2.0 0.00 0.00 0.00 82 1011.9
20260901213125 63 0 0.0 2.0 0.00 0.00 0.00 81 1011.8
20260901211602 62 0 0.0 3.0 0.00 0.00 0.00 83 1012.0
20260901210116 62 0 0.0 3.0 0.00 0.00 0.00 82 1011.9
20260901204558 63 0 0.0 3.0 0.00 0.00 0.00 81 1011.9
20260901203106 62 0 0.0 1.0 0.00 0.00 0.00 84 1011.9
20260901201603 61 0 0.0 2.0 0.00 0.00 0.00 85 1012.1
20260901200111 62 0 0.0 4.0 0.00 0.00 0.00 83 1012.1
20260901194559 61 360 0.0 3.0 0.00 0.00 0.00 85 1012.1
20260901193057 62 347 0.0 3.0 0.00 0.00 0.00 84 1012.2
20260901191602 61 0 0.0 3.0 0.00 0.00 0.00 83 1012.3
20260901190058 61 0 0.0 4.0 0.00 0.00 0.00 82 1012.4
20260901184606 61 271 0.0 5.0 0.00 0.00 0.00 82 1012.5
20260901183110 61 0 0.0 5.0 0.00 0.00 0.00 82 1012.4
20260901181602 61 320 0.0 3.0 0.00 0.00 0.00 83 1012.5
20260901180058 60 0 0.0 3.0 0.00 0.00 0.00 87 1012.6
20260901174556 59 0 0.0 2.0 0.00 0.00 0.00 87 1012.5
20260901173102 58 0 0.0 1.0 0.00 0.00 0.00 91 1012.6
20260901171602 58 106 0.0 4.0 0.00 0.00 0.00 90 1012.6
20260901170108 58 0 0.0 2.0 0.00 0.00 0.00 90 1012.5
20260901164600 58 0 0.0 6.0 0.00 0.00 0.00 90 1012.5
20260901163103 57 150 0.0 5.0 0.00 0.00 0.00 90 1012.4
20260901161615 57 179 0.0 6.0 0.00 0.00 0.00 88 1012.4
20260901160103 57 0 0.0 6.0 0.00 0.00 0.00 89 1012.4
20260901154619 57 105 0.0 3.0 0.00 0.00 0.00 89 1012.4
20260901153108 57 109 0.0 4.0 0.00 0.00 0.00 89 1012.3
20260901151612 56 108 0.0 2.0 0.00 0.00 0.00 90 1012.3
20260901150110 56 0 1.0 7.0 0.00 0.00 0.00 90 1012.2
20260901144602 56 0 0.0 4.0 0.00 0.00 0.00 91 1012.2
20260901143101 56 94 0.0 4.0 0.00 0.00 0.00 90 1012.1
20260901141605 56 0 0.0 6.0 0.00 0.00 0.00 90 1012.2
20260901140100 56 117 1.0 4.0 0.00 0.00 0.00 89 1012.2
20260901134601 56 100 0.0 4.0 0.00 0.00 0.00 89 1012.1
20260901133100 56 0 0.0 2.0 0.00 0.00 0.00 89 1011.9
20260901131604 56 0 0.0 2.0 0.00 0.00 0.00 89 1011.9
20260901130105 56 0 0.0 2.0 0.00 0.00 0.00 89 1011.9
20260901124559 56 0 0.0 4.0 0.00 0.00 0.00 89 1011.8
20260901123058 56 0 0.0 2.0 0.00 0.00 0.00 89 1012.0
20260901121613 56 105 0.0 3.0 0.00 0.00 0.00 89 1011.9
20260901120112 56 0 0.0 0.0 0.00 0.00 0.00 89 1011.8
20260901114606 56 0 0.0 3.0 0.00 0.00 0.00 89 1012.0
20260901113102 56 0 1.0 7.0 0.00 0.00 0.00 89 1011.9
20260901111606 56 0 0.0 4.0 0.00 0.00 0.00 89 1011.7
20260901104559 57 0 0.0 3.0 0.00 0.00 0.00 87 1011.7
20260901103107 57 0 0.0 7.0 0.00 0.00 0.00 86 1011.6
20260901101601 58 0 1.0 6.0 0.00 0.00 0.00 85 1011.5
20260901100101 58 163 1.0 8.0 0.00 0.00 0.00 85 1011.5
20260901094604 58 0 0.0 4.0 0.00 0.00 0.00 85 1011.3
20260901093105 58 0 0.0 5.0 0.00 0.00 0.00 84 1011.2
20260901091615 58 0 1.0 6.0 0.00 0.00 0.00 84 1011.0
20260901090104 59 101 0.0 3.0 0.00 0.00 0.00 84 1011.0
20260901084608 59 0 0.0 7.0 0.00 0.00 0.00 83 1010.9
20260901083107 60 0 0.0 3.0 0.00 0.00 0.00 81 1011.0
20260901081559 60 121 1.0 7.0 0.00 0.00 0.00 80 1011.0
20260901080106 60 205 1.0 4.0 0.00 0.00 0.00 80 1010.9